Simultaneous Nadir Overpasses (SNOs) Predictions

Prediction of SNOs between GOES-17 and METOP-C Satellite Orbit:

Table of predicted SNOs for the next 14.0 days since TLE Epoch: 8/19/2023
Index Date Time (GOES-17) GOES-17 Lat,Lon METOP-C Lat,Lon Distance(km) Time Diff (sec)
1 08/19/2023 04:34:21 -0.00,-104.69 -0.28,-105.83 130.02 80
2 08/20/2023 04:11:02 -0.00,-104.69 0.88,-100.84 439.20 80
3 08/21/2023 16:29:53 0.00,-104.72 0.14,-105.40 78.00 80
4 08/22/2023 16:11:53 0.00,-104.72 -0.96,-100.41 491.42 80
5 08/24/2023 04:30:51 -0.00,-104.69 -0.06,-105.00 34.78 80
6 08/26/2023 16:29:02 0.00,-104.70 -0.05,-104.56 15.92 80
7 08/29/2023 04:24:40 -0.00,-104.66 0.14,-104.16 58.42 80
8 08/30/2023 16:43:30 0.00,-104.67 0.90,-108.71 460.29 80
9 08/31/2023 16:25:29 0.00,-104.67 -0.21,-103.72 109.05 80
